Regional Weather Roundup
Issued by NWS

Home | Current Version | Previous Version | Text Only | Print | Product List | Glossary Off
Versions: 1 2 3 4 5 6 7 8 9 10 11 12 13 14 15 16 17 18 19 20 21 22 23 24 25 26 27 28 29 30 31 32 33 34 35 36 37 38 39 40 41 42 43 44 45 46 47 48 49 50

000
ASUS43 KLMK 230202
RWRKY
KENTUCKY REGIONAL WEATHER ROUNDUP
NATIONAL WEATHER SERVICE LOUISVILLE KY
900 PM EST WED NOV 22 2017

NOTE "FAIR" INDICATES FEW OR NO CLOUDS BELOW 12,000 FEET
WITH NO SIGNIFICANT WEATHER AND/OR OBSTRUCTIONS TO VISIBILITY.

KYZ001>023-026-027-061>063-070>075-230300-
WESTERN AND SOUTH CENTRAL KENTUCKY

CITY           SKY/WX    TMP DP  RH WIND       PRES   REMARKS
PADUCAH        CLOUDY    29  20  69 CALM      30.28S
HENDERSON      CLOUDY    27  25  92 CALM      30.29S
OWENSBORO      CLEAR     31  23  72 NW3       30.28F
HOPKINSVILLE   CLEAR     33  22  65 N6        30.26S WCI  27
BOWLING GREEN  CLEAR     36  24  62 CALM      30.26F
GLASGOW        NOT AVBL
$$

KYZ024-025-028>034-038-045-046-053-230300-
NORTH CENTRAL KENTUCKY

CITY           SKY/WX    TMP DP  RH WIND       PRES   REMARKS
LOUISVILLE/SDF CLEAR     35  24  64 N6        30.26F WCI  30
LOUISVILLE/LOU CLEAR     32  25  75 CALM      30.27F
FORT KNOX      CLEAR     33  22  62 N5        30.24F WCI  29
$$

KYZ035>037-039>044-047>052-055>060-089>105-230300-
NORTHEAST KENTUCKY

CITY           SKY/WX    TMP DP  RH WIND       PRES   REMARKS
LEXINGTON      CLOUDY    31  23  72 NE7       30.25F WCI  24
COVINGTON      CLEAR     30  24  78 CALM      30.25S
FRANKFORT      CLOUDY    31  22  69 E6        30.25F WCI  25
$$

KYZ054-064>069-076>088-106>120-230300-
SOUTHEAST KENTUCKY

CITY           SKY/WX    TMP DP  RH WIND       PRES   REMARKS
JACKSON        CLEAR     32  24  72 NE6       30.22S WCI  26
LONDON         CLEAR     33  23  66 N5        30.21S WCI  29
SOMERSET       CLOUDY    34  25  69 N3        30.24F
MIDDLESBORO    CLEAR     32  28  84 CALM      30.21R
MONTICELLO     CLEAR     33  25  72 NW9       30.25S WCI  25
$$





USA.gov is the U.S. government's official web portal to all federal, state and local government web resources and services.